{"data":{"norad_id":43648,"epoch":"2026-09-19T15:40:37.685280Z","epoch_age_seconds":87594,"freshness":"FRESH","line1":"1 43648U 18078B   26262.65321395 -.00000024  00000+0  00000+0 0  9996","line2":"2 43648  53.9977 296.6651 0002666  34.4420 325.6342  1.86227621 53939","mean_motion":1.86227621,"eccentricity":0.0002666,"inclination_deg":53.9977,"raan_deg":296.6651,"arg_perigee_deg":34.442,"mean_anomaly_deg":325.6342,"bstar":0,"rev_number":5393,"period_min":773.24727248704,"perigee_km":21520.949244852,"apogee_km":21535.829004582,"semimajor_km":27906.526124717,"source":"CELESTRAK","updated_at":"2026-09-20T09:00:46.710508Z"}}